Tracking 22130 objects as of 21-Jan-2021
HD Live streaming from Space Station
objects crossing your sky now

FAST

Track FAST now!
10-day predictions
FAST is classified as:


NORAD ID: 24285
Int'l Code: 1996-049A
Perigee: 353.4 km
Apogee: 3,432.2 km
Inclination: 83.0 °
Period: 124.6 minutes
Semi major axis: 8263 km
RCS: 1.3393 m2 (large)
Launch date: August 21, 1996
Source: United States (US)
Launch site: AIR FORCE WESTERN TEST RANGE (AFWTR)

Designed to study Earth's aurora.
aabbcc
Your satellite tracking list
Your tracking list is empty




NASA's NSSDC Master Catalog

Two Line Element Set (TLE):
1 24285U 96049A   21020.97203065  .00001202  00000-0  94568-4 0  9997
2 24285  82.9558  26.7569 1862848 164.0257 202.8847 11.55664905  2473
Source of the keplerian elements: AFSPC